Temperature
7 8 7 7 6 6 5 6 7 9 10 11 11 11 11 10 9 9 9 8 6 5 5 5 6 7 10 11 11 10 10 9 9 9 8 8 7 6 5 4 4 3 2 2
7 9 9 7 7 7 6 6 6 7 8 10 10 9 8 8 8 8 8 7 5 4 4 5 6 8 10 10 10 9 9 9 9 8 7 7 6 5 4 3 3 2 1 1
8 10 8 8 8 8 7 7 7 7 9 10 9 8 7 7 7 8 7 6 4 4 4 5 7 9 10 9 9 8 9 8 8 7 6 5 5 4 3 2 2 1 0 -0
7 8 9 10 10 9 8 9 9 9 10 10 9 8 7 7 7 7 6 5 4 4 4 5 7 8 8 8 8 8 8 7 7 6 5 4 3 3 2 1 0 -0 -1 -1
7 8 10 10 10 9 8 9 10 10 10 10 10 9 8 5 5 6 6 5 4 5 6 7 8 8 8 8 8 7 7 6 5 5 4 3 2 1 1 -0 -1 -1 -1 -1
7 9 10 11 11 9 9 11 11 10 10 10 9 10 9 4 5 5 5 5 6 6 7 8 8 8 8 7 7 6 6 5 4 3 2 2 1 0 -0 -1 -1 -1 -1 -2
8 9 10 12 10 10 11 12 10 8 9 10 10 8 4 3 4 5 5 6 7 7 8 8 8 7 7 6 5 5 4 3 2 2 1 0 -0 -1 -1 -1 -1 -2 -2 -3
9 9 11 12 10 11 11 9 8 7 7 7 5 3 3 3 3 4 5 5 6 7 7 7 7 7 7 5 4 4 3 2 1 1 -0 -1 -1 -1 -2 -2 -2 -2 -2 -3
11 12 13 10 10 9 7 7 7 6 5 6 4 3 2 2 2 3 4 5 5 7 7 6 6 6 6 4 3 2 2 1 0 -1 -1 -1 -2 -2 -2 -2 -3 -3 -3 -3
10 11 11 10 9 7 6 5 5 5 5 6 5 3 3 2 2 2 3 4 4 6 6 5 5 4 4 3 2 1 0 -0 -1 -1 -2 -2 -2 -3 -3 -3 -3 -4 -5 -5
10 11 11 10 7 6 6 5 5 5 5 5 5 3 3 2 2 3 3 3 4 6 5 4 3 3 2 1 0 -0 -1 -1 -1 -2 -2 -3 -3 -3 -3 -4 -4 -5 -6 -7
12 12 11 10 6 6 5 5 5 5 4 4 5 4 4 3 3 3 4 4 5 4 3 2 2 1 0 -1 -1 -1 -1 -2 -2 -2 -3 -3 -3 -4 -4 -4 -5 -6 -7 -7
11 9 9 8 7 6 6 5 5 5 5 4 3 4 5 5 4 4 4 4 4 3 2 1 0 -0 -1 -1 -1 -2 -2 -2 -2 -3 -3 -3 -4 -4 -4 -5 -5 -6 -7 -8
9 9 8 7 6 6 6 5 5 5 5 5 5 5 5 5 4 4 3 3 3 2 1 0 -0 -1 -1 -2 -2 -2 -2 -3 -3 -3 -4 -4 -4 -5 -5 -6 -6 -7 -8 -8
9 8 8 8 7 6 5 5 5 5 5 5 5 5 5 4 3 3 2 2 1 0 -0 -1 -1 -2 -2 -2 -2 -2 -3 -3 -4 -4 -4 -5 -5 -6 -6 -7 -8 -8 -8 -9
7 7 7 7 6 5 5 5 5 5 5 5 4 4 4 3 3 2 1 0 0 -1 -1 -2 -2 -2 -2 -3 -3 -3 -4 -4 -4 -5 -5 -5 -6 -7 -8 -8 -9 -9 -10 -10
6 5 5 5 5 5 5 5 6 6 5 5 5 4 3 2 1 0 -0 -1 -1 -1 -2 -2 -2 -2 -3 -3 -4 -4 -4 -4 -5 -5 -6 -6 -7 -8 -8 -9 -9 -10 -10 -10
8 8 8 9 7 6 5 5 6 6 6 5 4 3 3 2 1 0 -1 -1 -2 -2 -2 -3 -3 -3 -4 -4 -4 -4 -4 -5 -5 -6 -6 -7 -8 -9 -9 -9 -10 -10 -10 -10
8 8 8 7 6 6 6 6 6 6 6 5 4 3 3 2 1 0 -1 -2 -2 -2 -3 -3 -4 -4 -4 -4 -4 -5 -5 -5 -6 -7 -7 -8 -8 -9 -10 -10 -10 -10 -11 -11
7 7 7 6 6 6 6 6 6 6 5 5 4 3 2 1 0 -1 -1 -2 -2 -3 -3 -4 -4 -4 -4 -4 -5 -5 -6 -6 -7 -7 -8 -8 -9 -9 -10 -10 -10 -11 -11 -11
7 7 7 6 6 6 6 7 6 6 5 4 4 3 2 0 -0 -1 -2 -2 -3 -3 -4 -4 -4 -4 -5 -5 -5 -6 -6 -7 -7 -8 -8 -9 -9 -10 -10 -11 -11 -11 -11 -11
6 6 6 5 5 5 5 6 6 5 5 3 3 2 1 -0 -1 -2 -2 -2 -3 -3 -4 -4 -4 -5 -5 -5 -6 -6 -7 -7 -8 -9 -9 -9 -10 -10 -10 -11 -11 -11 -11 -11
4 5 4 4 5 5 5 5 5 5 4 3 3 2 1 0 -1 -1 -2 -3 -3 -4 -4 -4 -5 -5 -5 -6 -6 -7 -8 -8 -9 -9 -10 -10 -10 -11 -11 -11 -11 -11 -11 -11
3 3 3 3 4 4 4 4 4 3 3 2 1 1 1 -0 -2 -2 -2 -3 -3 -4 -4 -5 -5 -5 -6 -6 -7 -8 -8 -9 -9 -10 -10 -10 -11 -11 -11 -11 -11 -11 -11 -11
3 2 2 3 3 4 4 3 2 2 2 1 -0 -1 -1 -1 -1 -2 -3 -3 -4 -4 -5 -5 -6 -6 -6 -7 -8 -8 -9 -9 -10 -10 -10 -11 -11 -11 -11 -11 -11 -11 -11 -11
2 2 1 2 3 4 3 3 2 1 1 -0 -1 -2 -3 -3 -3 -3 -4 -4 -5 -5 -5 -6 -6 -7 -7 -8 -8 -9 -9 -9 -10 -10 -11 -11 -11 -11 -11 -11 -11 -11 -11 -11
0 0 0 1 2 3 3 3 2 1 1 0 -1 -2 -3 -3 -3 -4 -4 -5 -5 -6 -6 -6 -7 -7 -8 -8 -9 -9 -10 -10 -10 -11 -11 -11 -11 -12 -11 -11 -11 -11 -11 -11
Wind_Speed
19 23 22 25 26 21 23 24 21 27 28 27 21 18 18 18 18 17 14 7 6 8 11 12 13 14 15 16 15 15 17 17 17 17 16 16 15 13 11 9 7 6 4 3
18 22 22 24 24 22 20 22 26 29 30 24 16 11 14 15 16 15 11 6 9 11 12 13 14 14 15 16 15 15 17 17 17 17 16 15 14 13 11 8 7 5 3 1
12 16 15 10 10 10 10 14 16 21 25 19 14 15 15 14 14 11 6 8 11 12 13 13 14 15 16 16 16 17 17 17 17 16 15 14 13 11 9 7 5 3 1 1
7 11 6 5 7 10 11 14 17 21 21 16 13 10 10 10 9 5 5 10 12 13 13 14 15 15 17 17 17 18 17 17 16 15 15 13 11 10 8 5 4 2 1 2
4 7 9 8 6 5 5 7 8 15 19 16 11 10 6 6 4 2 8 12 13 14 15 15 16 17 18 18 17 17 16 16 14 14 14 12 10 8 6 4 2 1 1 3
5 5 4 6 8 5 5 5 8 11 11 9 6 4 3 7 6 10 13 13 14 15 16 16 16 17 18 17 16 16 15 14 13 12 12 10 9 7 5 3 1 1 2 3
7 5 6 6 8 6 4 9 12 11 8 3 3 1 5 7 10 12 14 15 16 16 14 14 15 17 18 17 15 15 14 14 12 11 10 9 8 6 4 2 0 2 3 4
5 5 5 2 4 3 7 8 9 8 4 3 7 9 10 11 12 13 14 15 15 15 15 14 14 17 18 16 15 15 14 13 12 11 9 7 6 5 3 1 2 3 5 6
5 6 5 3 6 7 5 7 6 4 1 8 9 9 11 12 13 13 14 14 14 17 17 14 13 15 18 15 14 14 14 12 11 9 7 6 5 3 2 2 3 4 5 6
6 9 8 8 6 3 3 4 3 2 7 8 11 12 13 12 13 13 14 14 14 16 17 15 14 15 16 14 13 14 13 11 9 8 6 5 3 2 2 3 4 5 6 7
7 8 7 2 3 3 4 5 7 8 8 11 15 14 14 13 13 13 13 13 13 14 16 16 15 14 13 12 13 13 11 9 8 6 5 4 3 2 3 2 4 6 6 7
5 3 3 3 3 4 6 7 8 12 13 12 12 15 15 13 13 13 14 14 15 16 16 15 14 13 11 10 11 11 9 7 5 4 4 3 2 1 0 3 5 7 8 9
4 1 0 2 4 5 7 9 10 11 13 14 13 14 15 15 13 14 14 15 16 16 15 14 13 12 9 9 9 9 8 7 5 4 3 2 2 3 4 3 4 6 8 10
5 4 3 4 4 7 11 12 13 14 13 14 14 14 15 15 15 14 14 14 15 15 14 14 13 11 8 8 9 9 8 6 5 3 2 1 2 4 5 6 8 7 8 10
6 6 3 7 10 11 13 14 15 14 14 14 13 14 15 16 15 14 13 14 14 14 13 13 12 10 8 8 9 8 6 4 3 2 1 2 3 4 5 6 7 8 8 9
5 5 8 11 12 13 14 14 14 14 14 15 14 13 14 15 15 14 13 13 14 13 12 11 11 9 8 8 8 6 5 5 2 1 1 2 4 4 5 6 7 8 8 8
8 7 8 10 13 14 13 12 13 14 15 15 15 15 15 16 15 13 11 10 12 11 10 10 10 8 7 6 6 4 3 3 2 2 2 3 4 5 6 6 7 8 8 9
7 7 11 13 15 15 14 13 14 15 14 14 16 15 15 15 15 13 12 12 12 11 9 9 9 8 7 6 4 3 3 2 2 2 3 4 5 5 6 6 8 9 8 10
5 7 10 13 15 15 15 15 15 14 15 16 16 15 14 13 14 13 13 13 12 10 7 8 10 8 6 5 4 3 2 1 1 2 3 5 5 5 6 6 7 8 9 9
6 8 11 14 14 16 16 16 16 15 14 15 16 15 14 13 13 13 12 9 6 7 9 9 8 6 5 5 4 2 2 2 2 3 4 5 5 6 6 7 7 8 9 9
8 11 13 15 15 14 15 17 17 16 15 15 16 16 15 13 12 11 11 8 6 8 9 9 6 5 4 3 3 2 1 2 3 4 5 5 5 6 6 7 7 8 8 9
9 12 14 15 15 15 13 13 15 17 16 14 15 15 15 13 11 9 8 7 8 10 7 5 4 5 5 3 1 1 2 3 4 4 5 5 5 6 7 7 8 8 8 9
8 11 13 14 15 16 15 13 14 15 16 16 16 15 14 12 9 9 8 7 7 9 6 5 6 7 5 2 1 2 3 4 4 5 5 5 6 6 7 8 8 8 8 9
10 11 12 13 15 17 16 14 13 12 14 13 12 13 13 10 7 5 8 11 11 10 6 7 7 6 4 2 2 3 4 4 5 5 5 6 6 6 7 7 8 8 8 10
11 12 13 15 14 13 15 16 16 15 14 11 12 10 8 6 7 9 9 10 12 9 6 6 6 4 2 2 3 4 4 5 6 6 6 6 6 7 7 7 7 8 8 9
11 11 10 10 10 12 12 12 11 11 12 11 9 7 8 8 10 9 8 8 9 8 5 3 2 2 2 3 4 5 5 6 6 6 6 7 7 8 7 8 10 9 9 9
11 10 10 10 10 10 10 11 12 12 11 12 10 8 9 9 8 8 8 6 5 4 3 2 1 2 3 4 5 5 5 5 6 6 7 7 7 7 8 9 8 8 8 9
Wind_Direction
258 272 275 271 271 261 242 241 251 262 268 276 284 288 289 291 293 293 294 277 205 172 153 145 141 136 131 129 133 134 128 124 123 123 122 122 122 123 124 128 133 136 136 134
277 277 277 276 275 268 254 246 249 261 271 277 289 287 289 289 289 288 284 225 175 157 146 143 140 135 129 127 130 127 122 120 121 121 120 121 123 124 125 129 133 134 130 110
289 302 297 279 279 267 245 236 242 253 260 269 272 277 279 281 281 281 258 177 159 151 144 140 137 133 128 127 124 119 117 119 121 121 121 123 125 126 129 132 136 138 122 345
289 306 300 322 307 288 274 268 251 251 263 270 270 276 279 285 285 268 174 152 144 136 129 127 126 124 122 120 119 118 118 119 121 123 123 125 125 125 127 131 136 128 34 341
277 295 288 307 325 313 296 294 296 271 267 268 271 286 294 342 312 182 139 133 128 126 124 124 124 123 119 116 117 118 120 122 124 126 126 126 124 124 127 133 128 99 337 334
272 293 301 314 324 315 272 317 360 329 294 273 252 282 18 20 55 105 112 115 118 119 120 119 121 122 117 117 117 117 120 121 122 123 123 122 121 122 123 123 111 349 323 327
251 266 275 287 310 305 334 341 337 330 318 254 210 65 75 70 79 95 105 113 117 116 114 117 121 118 113 112 113 115 116 114 111 111 112 114 117 119 123 119 50 327 321 322
222 244 276 296 315 322 317 316 312 316 331 120 105 92 88 87 91 98 104 110 113 111 109 113 118 116 110 109 113 114 111 109 107 107 107 115 121 121 113 65 335 332 329 329
232 256 304 284 270 294 308 294 298 306 118 127 113 103 100 97 97 100 104 108 112 113 110 107 110 114 112 115 117 115 111 110 110 111 113 117 115 111 91 21 349 337 331 326
265 270 279 289 295 327 327 294 306 133 133 129 120 118 110 106 104 105 107 111 115 113 108 103 103 105 112 117 118 117 116 118 121 120 116 110 100 79 41 6 345 332 326 322
262 283 303 340 12 27 63 85 98 103 110 120 121 119 116 112 111 111 111 111 110 109 107 107 107 106 110 118 122 120 121 121 119 114 113 105 89 59 9 358 335 324 320 316
265 306 302 340 55 95 106 106 114 115 111 113 120 122 118 114 114 113 112 110 108 106 108 110 110 108 111 120 126 124 122 121 116 113 104 85 52 15 318 313 318 313 312 312
262 167 50 103 113 115 118 118 119 118 120 120 120 121 118 115 113 112 111 111 111 112 113 114 113 111 113 119 120 119 119 117 110 101 84 52 5 337 325 303 288 299 308 315
206 174 192 176 149 132 126 119 113 111 114 118 121 120 117 114 113 111 112 113 114 114 116 117 115 112 114 116 113 110 107 99 97 91 70 16 337 326 321 320 319 318 317 316
195 199 162 131 129 131 132 129 124 122 121 118 119 120 121 120 117 115 116 118 117 116 118 119 116 114 116 114 109 105 102 102 99 91 45 340 327 319 313 309 308 311 314 319
136 132 138 145 148 149 149 146 138 135 131 126 122 119 118 118 117 118 122 127 126 124 125 122 118 118 115 110 109 106 101 98 89 56 4 340 327 316 310 309 309 311 315 322
153 162 164 165 165 163 161 155 145 140 136 131 128 125 123 121 119 118 118 119 118 118 121 120 119 117 113 115 116 111 106 96 68 22 356 335 320 313 311 309 310 313 314 319
204 192 183 175 168 161 153 144 141 140 136 134 132 132 133 133 131 128 124 120 114 107 107 115 119 121 121 120 112 100 87 67 29 357 337 325 317 314 309 307 311 312 315 319
179 166 165 163 160 154 147 144 141 137 136 138 137 135 132 130 129 129 129 127 126 124 126 130 131 129 127 119 105 89 74 49 2 339 328 319 314 310 310 311 313 315 318 320
139 141 144 144 143 145 143 140 138 137 139 139 134 130 128 128 129 129 127 121 122 131 137 138 135 130 127 119 101 79 57 9 340 331 323 317 315 315 315 315 317 319 320 319
137 137 137 138 136 138 141 142 141 139 140 141 137 134 131 129 129 129 127 121 122 132 137 137 134 132 127 113 93 62 19 346 332 324 317 313 313 314 315 317 318 318 316 315
141 141 140 138 136 134 137 137 137 136 135 132 129 129 129 130 127 117 110 126 139 142 137 135 132 128 118 102 63 18 346 329 320 315 310 309 311 312 314 316 314 312 310 308
141 141 141 140 137 132 128 130 134 135 134 135 136 138 135 133 133 130 125 134 140 142 135 129 126 117 101 74 28 343 322 314 310 307 306 306 306 307 308 308 305 304 304 304
138 137 135 133 131 130 128 127 123 122 123 123 127 131 131 126 112 107 126 140 141 132 119 118 114 102 81 36 341 316 308 305 303 300 300 302 303 302 299 297 297 297 297 297
136 135 137 142 140 135 130 127 121 120 116 115 116 116 113 116 124 128 128 131 129 116 101 97 91 78 35 337 315 306 303 299 300 303 304 302 299 296 292 291 291 292 292 292
141 143 145 142 136 137 139 136 132 131 128 124 118 110 108 110 117 118 114 113 112 107 98 82 55 21 335 315 306 304 301 301 302 300 295 293 291 289 287 287 289 287 287 287
135 134 130 125 132 139 138 136 135 136 136 134 127 124 122 120 118 116 112 109 106 102 97 73 9 328 313 307 303 301 298 296 295 294 291 287 284 282 282 283 284 285 285 285
Height
1438 1431 1429 1426 1422 1421 1421 1415 1407 1389 1383 1377 1380 1382 1382 1381 1379 1377 1375 1375 1375 1377 1379 1382 1387 1392 1398 1406 1414 1421 1427 1433 1439 1445 1452 1457 1461 1465 1469 1472 1474 1474 1473 1472
1430 1421 1415 1412 1407 1405 1405 1405 1400 1392 1383 1377 1380 1381 1380 1377 1375 1372 1371 1372 1374 1376 1378 1382 1387 1392 1399 1407 1414 1422 1428 1434 1440 1446 1451 1456 1460 1464 1467 1470 1471 1471 1470 1469
1420 1408 1408 1400 1397 1395 1393 1390 1389 1385 1374 1373 1378 1378 1376 1374 1371 1369 1369 1371 1373 1375 1378 1383 1389 1394 1401 1408 1416 1423 1430 1436 1442 1447 1452 1456 1460 1463 1466 1468 1469 1469 1467 1466
1422 1413 1400 1396 1392 1390 1386 1381 1379 1375 1369 1370 1372 1372 1372 1370 1368 1367 1368 1371 1373 1376 1380 1385 1391 1398 1405 1412 1420 1427 1433 1438 1443 1448 1452 1456 1459 1462 1465 1466 1466 1466 1464 1462
1421 1409 1398 1392 1389 1388 1386 1379 1373 1369 1365 1366 1369 1370 1368 1368 1366 1367 1369 1372 1375 1379 1384 1390 1397 1404 1410 1417 1424 1430 1435 1440 1445 1449 1453 1456 1459 1461 1463 1464 1463 1462 1460 1458
1418 1410 1398 1391 1386 1385 1386 1374 1372 1369 1365 1365 1368 1367 1369 1369 1368 1370 1372 1375 1379 1384 1390 1397 1403 1410 1415 1421 1427 1433 1438 1442 1447 1451 1454 1456 1459 1460 1461 1461 1461 1459 1456 1453
1415 1409 1395 1387 1385 1384 1380 1377 1373 1370 1367 1366 1367 1370 1374 1372 1373 1374 1377 1380 1385 1391 1397 1402 1408 1414 1419 1425 1430 1435 1440 1444 1448 1451 1454 1456 1458 1459 1459 1459 1458 1456 1453 1450
1407 1403 1395 1385 1384 1383 1380 1377 1374 1371 1369 1368 1370 1372 1374 1375 1377 1379 1381 1386 1391 1396 1401 1408 1414 1419 1423 1428 1433 1438 1442 1446 1449 1452 1454 1456 1457 1457 1457 1456 1454 1452 1449 1446
1397 1392 1384 1384 1383 1381 1379 1376 1373 1371 1370 1370 1371 1374 1376 1379 1381 1383 1386 1390 1395 1400 1405 1412 1418 1424 1426 1431 1436 1440 1444 1447 1450 1452 1454 1455 1455 1455 1454 1453 1451 1448 1446 1442
1394 1385 1383 1381 1380 1378 1376 1374 1372 1371 1371 1372 1373 1376 1379 1382 1385 1387 1391 1395 1399 1405 1410 1416 1422 1427 1431 1435 1439 1443 1446 1448 1450 1452 1453 1453 1453 1452 1451 1450 1447 1445 1442 1439
1390 1384 1381 1379 1379 1377 1375 1373 1373 1373 1373 1375 1377 1380 1383 1385 1389 1392 1395 1400 1405 1410 1415 1420 1426 1431 1435 1439 1442 1445 1447 1448 1450 1451 1451 1451 1451 1450 1448 1446 1444 1442 1439 1435
1383 1382 1382 1381 1379 1378 1377 1376 1376 1376 1377 1380 1382 1384 1387 1390 1393 1397 1401 1406 1411 1416 1420 1425 1430 1434 1438 1441 1444 1446 1447 1448 1449 1450 1450 1449 1449 1447 1445 1444 1441 1438 1435 1431
1382 1381 1381 1380 1379 1379 1379 1379 1380 1381 1382 1383 1387 1390 1392 1395 1399 1404 1408 1413 1417 1421 1425 1429 1433 1436 1439 1442 1444 1446 1447 1447 1448 1448 1448 1447 1446 1445 1443 1441 1438 1435 1431 1427
1378 1379 1379 1379 1379 1380 1380 1382 1383 1385 1387 1389 1392 1395 1398 1402 1406 1410 1414 1418 1422 1425 1429 1432 1436 1438 1441 1443 1444 1445 1446 1447 1447 1447 1446 1445 1444 1442 1440 1437 1434 1430 1427 1423
1374 1376 1377 1377 1379 1380 1381 1383 1386 1388 1391 1394 1398 1401 1404 1407 1411 1415 1419 1422 1426 1429 1432 1435 1438 1440 1442 1443 1445 1445 1446 1446 1446 1445 1445 1443 1442 1439 1436 1433 1429 1425 1422 1418
1371 1372 1374 1376 1377 1379 1382 1385 1387 1390 1394 1397 1401 1405 1408 1411 1415 1419 1423 1426 1429 1431 1434 1437 1439 1441 1443 1444 1445 1445 1445 1445 1445 1444 1443 1441 1438 1435 1432 1429 1425 1422 1418 1414
1369 1370 1371 1373 1375 1378 1381 1385 1388 1391 1396 1400 1404 1407 1411 1414 1417 1421 1425 1428 1431 1434 1436 1438 1440 1442 1443 1444 1444 1445 1445 1444 1444 1442 1440 1437 1434 1432 1429 1426 1422 1418 1415 1411
1366 1367 1368 1369 1371 1376 1380 1385 1389 1394 1398 1402 1406 1409 1413 1416 1418 1422 1425 1429 1432 1435 1437 1439 1441 1442 1443 1443 1444 1444 1444 1443 1441 1439 1437 1434 1431 1429 1426 1422 1419 1415 1411 1407
1363 1364 1366 1368 1371 1375 1379 1384 1390 1395 1399 1403 1407 1410 1414 1417 1420 1423 1427 1430 1433 1435 1438 1439 1441 1442 1443 1443 1443 1443 1442 1440 1438 1436 1434 1431 1428 1425 1422 1419 1415 1411 1407 1403
1361 1363 1364 1366 1370 1375 1380 1385 1391 1395 1400 1404 1408 1411 1415 1418 1422 1425 1428 1431 1434 1436 1438 1439 1441 1442 1442 1442 1442 1441 1440 1438 1435 1433 1431 1428 1425 1422 1419 1415 1412 1408 1404 1400
1360 1362 1364 1366 1370 1376 1381 1386 1391 1396 1401 1405 1409 1412 1415 1419 1423 1426 1429 1431 1434 1436 1438 1440 1441 1441 1441 1441 1440 1439 1437 1435 1432 1430 1427 1425 1422 1419 1415 1412 1409 1405 1401 1398
1360 1362 1364 1367 1371 1376 1382 1388 1393 1397 1401 1406 1410 1413 1416 1420 1423 1427 1430 1433 1434 1437 1438 1440 1440 1441 1440 1439 1438 1436 1434 1432 1429 1427 1424 1421 1418 1415 1412 1409 1405 1402 1398 1395
1361 1363 1366 1369 1372 1377 1382 1388 1394 1398 1402 1406 1411 1414 1418 1421 1424 1427 1430 1433 1435 1437 1438 1439 1440 1439 1438 1437 1435 1433 1431 1428 1426 1423 1420 1417 1414 1411 1408 1405 1402 1399 1395 1392
1362 1364 1367 1370 1374 1379 1383 1389 1395 1400 1404 1409 1413 1417 1420 1422 1425 1428 1431 1433 1435 1437 1438 1438 1438 1437 1436 1434 1432 1430 1428 1425 1422 1419 1416 1413 1410 1407 1404 1401 1398 1395 1392 1389
1363 1365 1368 1372 1375 1380 1384 1390 1395 1400 1405 1410 1414 1418 1422 1425 1427 1429 1431 1433 1435 1437 1437 1437 1436 1435 1434 1432 1429 1427 1424 1421 1418 1415 1412 1409 1406 1403 1400 1397 1395 1392 1389 1386
1363 1366 1369 1373 1376 1381 1385 1390 1395 1400 1405 1409 1413 1418 1421 1424 1427 1429 1432 1433 1435 1436 1436 1435 1434 1433 1431 1429 1426 1423 1421 1418 1414 1411 1408 1405 1402 1399 1396 1393 1391 1388 1386 1383
1363 1366 1369 1373 1378 1383 1388 1392 1396 1400 1405 1409 1412 1417 1421 1424 1427 1430 1431 1433 1434 1434 1434 1433 1432 1430 1428 1425 1423 1420 1417 1413 1410 1407 1404 1401 1398 1395 1392 1389 1387 1385 1382 1380